• In Uzbekistan
  • List of Countries
  • For 7 days
  • Water Temperature
  • Satellite Maps
  • Weather Map
  • Weather Widgets
  • user-avatar
    Login

    Hourly Weather Volubilis

    Today, 26 May, Saturday

    Time Temperature Precipitation Wind Pressure Humidity
    00:00 +14°C° 0 mm 0 mps 721 mmHg 82%
    01:00 +14°C° 0 mm 0 mps 721 mmHg 83%
    02:00 +14°C° 0 mm 0 mps 721 mmHg 84%
    03:00 +13°C° 0 mm 0 mps 720 mmHg 86%
    04:00 +14°C° 0 mm 0 mps 720 mmHg 85%
    05:00 +14°C° 0 mm 0 mps 721 mmHg 85%
    06:00 +14°C° 0 mm 0 mps 721 mmHg 84%
    07:00 +15°C° 0 mm 0 mps 721 mmHg 77%
    08:00 +19°C° 0 mm 1 mps 721 mmHg 70%
    09:00 +21°C° 0 mm 1 mps 721 mmHg 63%
    10:00 +21°C° 0 mm 2 mps 721 mmHg 58%
    11:00 +23°C° 0 mm 2 mps 721 mmHg 54%
    12:00 +25°C° 0 mm 3 mps 721 mmHg 50%
    13:00 +25°C° 0 mm 3 mps 721 mmHg 48%
    14:00 +26°C° 0 mm 4 mps 721 mmHg 47%
    15:00 +26°C° 0 mm 4 mps 721 mmHg 46%
    16:00 +25°C° 0.6 mm 5 mps 720 mmHg 52%
    17:00 +22°C° 0.6 mm 5 mps 720 mmHg 58%
    18:00 +21°C° 0.6 mm 5 mps 720 mmHg 63%
    19:00 +20°C° 1.1 mm 4 mps 720 mmHg 69%
    20:00 +19°C° 1.1 mm 3 mps 721 mmHg 74%
    21:00 +17°C° 1.1 mm 2 mps 721 mmHg 80%
    22:00 +17°C° 2 mm 2 mps 722 mmHg 82%
    23:00 +18°C° 2 mm 1 mps 722 mmHg 84%

    Tomorrow, 27 May, Sunday

    Time Temperature Precipitation Wind Pressure Humidity
    00:00 +16°C° 2 mm 1 mps 722 mmHg 87%
    01:00 +16°C° 0.4 mm 1 mps 722 mmHg 87%
    02:00 +16°C° 0.4 mm 1 mps 722 mmHg 88%
    03:00 +15°C° 0.4 mm 0 mps 722 mmHg 89%
    04:00 +15°C° 0.2 mm 0 mps 722 mmHg 89%
    05:00 +15°C° 0.2 mm 0 mps 722 mmHg 90%
    06:00 +14°C° 0.2 mm 0 mps 722 mmHg 90%
    07:00 +18°C° 0.1 mm 1 mps 723 mmHg 83%
    08:00 +19°C° 0.1 mm 1 mps 723 mmHg 76%
    09:00 +20°C° 0.1 mm 1 mps 724 mmHg 69%
    10:00 +20°C° 0.3 mm 2 mps 724 mmHg 64%
    11:00 +21°C° 0.3 mm 2 mps 724 mmHg 60%
    12:00 +22°C° 0.3 mm 3 mps 724 mmHg 56%
    13:00 +23°C° 0.6 mm 4 mps 724 mmHg 55%
    14:00 +23°C° 0.6 mm 4 mps 724 mmHg 54%
    15:00 +23°C° 0.6 mm 4 mps 723 mmHg 54%
    16:00 +22°C° 0.1 mm 4 mps 724 mmHg 57%
    17:00 +22°C° 0.1 mm 4 mps 724 mmHg 59%
    18:00 +21°C° 0.1 mm 4 mps 724 mmHg 62%
    19:00 +20°C° 0.1 mm 4 mps 724 mmHg 67%
    20:00 +19°C° 0.1 mm 3 mps 724 mmHg 72%
    21:00 +18°C° 0.1 mm 2 mps 725 mmHg 78%
    22:00 +17°C° 0 mm 2 mps 725 mmHg 80%
    23:00 +16°C° 0 mm 1 mps 725 mmHg 83%

    Day after tomorrow, 28 May, Monday

    Time Temperature Precipitation Wind Pressure Humidity
    00:00 +16°C° 0 mm 1 mps 725 mmHg 86%
    01:00 +16°C° 0 mm 1 mps 724 mmHg 88%
    02:00 +15°C° 0 mm 1 mps 724 mmHg 90%
    03:00 +14°C° 0 mm 0 mps 724 mmHg 92%
    04:00 +14°C° 0 mm 0 mps 724 mmHg 92%
    05:00 +14°C° 0 mm 0 mps 724 mmHg 91%
    06:00 +14°C° 0 mm 0 mps 724 mmHg 91%
    07:00 +15°C° 0 mm 0 mps 724 mmHg 84%
    08:00 +18°C° 0 mm 1 mps 724 mmHg 76%
    09:00 +20°C° 0 mm 1 mps 724 mmHg 69%
    10:00 +21°C° 0 mm 1 mps 724 mmHg 64%
    11:00 +21°C° 0 mm 2 mps 724 mmHg 58%
    12:00 +22°C° 0 mm 3 mps 724 mmHg 53%
    13:00 +22°C° 0 mm 3 mps 724 mmHg 53%
    14:00 +23°C° 0 mm 4 mps 724 mmHg 53%
    15:00 +23°C° 0 mm 4 mps 723 mmHg 53%
    16:00 +22°C° 0 mm 4 mps 723 mmHg 56%
    17:00 +21°C° 0 mm 4 mps 723 mmHg 59%
    18:00 +21°C° 0 mm 4 mps 723 mmHg 61%
    19:00 +20°C° 0 mm 4 mps 724 mmHg 67%
    20:00 +18°C° 0 mm 3 mps 724 mmHg 72%
    21:00 +17°C° 0 mm 3 mps 724 mmHg 77%
    22:00 +16°C° 0 mm 2 mps 724 mmHg 80%
    23:00 +16°C° 0 mm 2 mps 724 mmHg 83%

    29 May, Tuesday

    Time Temperature Precipitation Wind Pressure Humidity
    00:00 +15°C° 0 mm 1 mps 724 mmHg 86%
    01:00 +15°C° 0 mm 1 mps 724 mmHg 86%
    02:00 +15°C° 0 mm 1 mps 724 mmHg 87%
    03:00 +15°C° 0 mm 1 mps 723 mmHg 87%
    04:00 +15°C° 0 mm 1 mps 723 mmHg 86%
    05:00 +15°C° 0 mm 1 mps 723 mmHg 85%
    06:00 +15°C° 0 mm 1 mps 724 mmHg 84%
    07:00 +16°C° 0 mm 1 mps 724 mmHg 81%
    08:00 +16°C° 0 mm 2 mps 724 mmHg 77%
    09:00 +17°C° 0 mm 2 mps 724 mmHg 73%
    10:00 +18°C° 0 mm 2 mps 724 mmHg 68%
    11:00 +19°C° 0 mm 2 mps 724 mmHg 62%
    12:00 +20°C° 0 mm 3 mps 724 mmHg 56%
    13:00 +21°C° 0 mm 3 mps 724 mmHg 52%
    14:00 +22°C° 0 mm 3 mps 724 mmHg 48%
    15:00 +23°C° 0 mm 4 mps 723 mmHg 44%
    16:00 +22°C° 0 mm 4 mps 723 mmHg 48%
    17:00 +21°C° 0 mm 5 mps 723 mmHg 53%
    18:00 +20°C° 0 mm 5 mps 723 mmHg 58%
    19:00 +19°C° 0 mm 4 mps 724 mmHg 65%
    20:00 +17°C° 0 mm 3 mps 724 mmHg 72%
    21:00 +16°C° 0 mm 2 mps 724 mmHg 79%
    22:00 +15°C° 0 mm 2 mps 724 mmHg 81%
    23:00 +15°C° 0 mm 1 mps 724 mmHg 83%

    30 May, Wednesday

    Time Temperature Precipitation Wind Pressure Humidity
    00:00 +15°C° 0 mm 1 mps 724 mmHg 85%
    01:00 +14°C° 0 mm 1 mps 724 mmHg 86%
    02:00 +14°C° 0 mm 1 mps 723 mmHg 86%
    03:00 +14°C° 0 mm 1 mps 723 mmHg 87%
    04:00 +14°C° 0 mm 1 mps 723 mmHg 87%
    05:00 +14°C° 0 mm 1 mps 723 mmHg 86%
    06:00 +14°C° 0 mm 1 mps 723 mmHg 86%
    07:00 +15°C° 0 mm 1 mps 723 mmHg 79%
    08:00 +18°C° 0 mm 1 mps 724 mmHg 72%
    09:00 +19°C° 0 mm 1 mps 724 mmHg 65%
    10:00 +19°C° 0 mm 2 mps 724 mmHg 59%
    11:00 +20°C° 0 mm 2 mps 724 mmHg 54%
    12:00 +22°C° 0 mm 3 mps 724 mmHg 48%
    13:00 +22°C° 0 mm 3 mps 724 mmHg 48%
    14:00 +23°C° 0 mm 4 mps 723 mmHg 47%
    15:00 +23°C° 0 mm 4 mps 723 mmHg 47%
    16:00 +22°C° 0 mm 4 mps 723 mmHg 50%
    17:00 +22°C° 0 mm 4 mps 723 mmHg 53%
    18:00 +21°C° 0 mm 4 mps 723 mmHg 57%
    19:00 +20°C° 0 mm 4 mps 724 mmHg 63%
    20:00 +18°C° 0 mm 3 mps 724 mmHg 70%
    21:00 +17°C° 0 mm 2 mps 724 mmHg 76%
    22:00 +16°C° 0 mm 2 mps 724 mmHg 79%
    23:00 +16°C° 0 mm 1 mps 724 mmHg 82%

    31 May, Thursday

    Time Temperature Precipitation Wind Pressure Humidity
    00:00 +15°C° 0 mm 1 mps 724 mmHg 85%
    01:00 +15°C° 0 mm 1 mps 723 mmHg 86%
    02:00 +13°C° 0 mm 0 mps 723 mmHg 88%
    03:00 +13°C° 0 mm 0 mps 723 mmHg 90%
    04:00 +13°C° 0 mm 0 mps 723 mmHg 90%
    05:00 +13°C° 0 mm 0 mps 723 mmHg 89%
    06:00 +13°C° 0 mm 0 mps 723 mmHg 89%
    07:00 +16°C° 0 mm 1 mps 723 mmHg 81%
    08:00 +18°C° 0 mm 1 mps 724 mmHg 74%
    09:00 +20°C° 0 mm 1 mps 724 mmHg 66%
    10:00 +20°C° 0 mm 2 mps 724 mmHg 59%
    11:00 +23°C° 0 mm 2 mps 724 mmHg 52%
    12:00 +24°C° 0 mm 3 mps 724 mmHg 46%
    13:00 +25°C° 0 mm 3 mps 724 mmHg 44%
    14:00 +26°C° 0 mm 4 mps 724 mmHg 42%
    15:00 +27°C° 0 mm 4 mps 723 mmHg 40%
    16:00 +26°C° 0.1 mm 4 mps 723 mmHg 45%
    17:00 +25°C° 0.1 mm 4 mps 723 mmHg 50%
    18:00 +23°C° 0.1 mm 4 mps 723 mmHg 55%
    19:00 +21°C° 0 mm 4 mps 724 mmHg 62%
    20:00 +20°C° 0 mm 3 mps 724 mmHg 68%
    21:00 +18°C° 0 mm 2 mps 724 mmHg 75%
    22:00 +18°C° 0 mm 2 mps 724 mmHg 77%
    23:00 +18°C° 0 mm 1 mps 724 mmHg 79%
    Show more